�v������,���r���O(���x),�����t���O,���r���O(���x),�����t���O,��1(���x),�����t���O,��2���x),�����t���O,�������x,�����t���O
12/1/2003 0:00,20.5,1,72.8,1,18.3,1,19.6,1,15.4,1
12/1/2003 0:15,20.5,1,74.6,1,18.4,1,19.7,1,15.5,1
12/1/2003 0:30,21.2,1,78,1,18.5,1,19.8,1,15.5,1
12/1/2003 0:45,20.8,1,77.2,1,18.5,1,19.9,1,15.6,1
12/1/2003 1:00,20.7,1,75.5,1,18.5,1,20,1,15.5,1
12/1/2003 1:15,20.6,1,75.1,1,18.5,1,20.1,1,15.5,1
12/1/2003 1:30,20.6,1,74.8,1,18.5,1,20.2,1,15.5,1
12/1/2003 1:45,20.5,1,74.5,1,18.5,1,20.2,1,15.8,1
12/1/2003 2:00,20.5,1,74.4,1,18.5,1,20.1,1,15.9,1
12/1/2003 2:15,20.5,1,74.1,1,18.5,1,20,1,15.9,1
12/1/2003 2:30,20.5,1,73.9,1,18.5,1,20,1,15.9,1
12/1/2003 2:45,20.5,1,73.9,1,18.5,1,19.9,1,16,1
12/1/2003 3:00,20.5,1,74.5,1,18.5,1,19.9,1,16,1
12/1/2003 3:15,20.5,1,74,1,18.5,1,19.8,1,16.1,1
12/1/2003 3:30,20.4,1,73.9,1,18.5,1,19.8,1,16.1,1
12/1/2003 3:45,20.5,1,74.3,1,18.5,1,19.8,1,16.1,1
12/1/2003 4:00,20.5,1,73.6,1,18.5,1,19.8,1,16.2,1
12/1/2003 4:15,20.4,1,73.6,1,18.5,1,19.7,1,16.2,1
12/1/2003 4:30,20.4,1,73.1,1,18.5,1,19.7,1,16.3,1
12/1/2003 4:45,20.4,1,73.8,1,18.4,1,19.7,1,16.3,1
12/1/2003 5:00,20.4,1,73.6,1,18.5,1,19.7,1,16.3,1
12/1/2003 5:15,20.4,1,73.2,1,18.5,1,19.7,1,16.4,1
12/1/2003 5:30,20.4,1,73,1,18.4,1,19.7,1,16.4,1
12/1/2003 5:45,20.3,1,73.2,1,18.4,1,19.7,1,16.4,1
12/1/2003 6:00,20.4,1,72.7,1,18.4,1,19.7,1,16.5,1
12/1/2003 6:15,20.5,1,72.4,1,18.4,1,19.7,1,16.6,1
12/1/2003 6:30,20.6,1,74.6,1,18.5,1,19.7,1,16.4,1
12/1/2003 6:45,20.8,1,76.6,1,18.6,1,19.8,1,16.4,1
12/1/2003 7:00,20.8,1,73.3,1,18.6,1,19.9,1,16.5,1
12/1/2003 7:15,20.7,1,73,1,18.7,1,19.9,1,16.5,1
12/1/2003 7:30,20.7,1,73.5,1,18.6,1,19.9,1,14.8,1
12/1/2003 7:45,20.7,1,73.1,1,18.6,1,19.9,1,14.8,1
12/1/2003 8:00,20.6,1,72.8,1,18.5,1,19.9,1,14.9,1
12/1/2003 8:15,20.5,1,72.3,1,18.5,1,19.8,1,14.9,1
12/1/2003 8:30,20.5,1,72.1,1,18.5,1,19.8,1,14.9,1
12/1/2003 8:45,20.5,1,71.7,1,18.4,1,19.7,1,15,1
12/1/2003 9:00,20.4,1,71.6,1,18.4,1,19.7,1,15.1,1
12/1/2003 9:15,20.4,1,71.3,1,18.4,1,19.7,1,15.1,1
12/1/2003 9:30,20.4,1,71.3,1,18.3,1,19.7,1,15.2,1
12/1/2003 9:45,20.4,1,71,1,18.3,1,19.7,1,15.2,1
12/1/2003 10:00,20.3,1,70.8,1,18.3,1,19.6,1,15.3,1
12/1/2003 10:15,20.3,1,70.7,1,18.3,1,19.6,1,15.3,1
12/1/2003 10:30,20.3,1,70.5,1,18.2,1,19.6,1,15.4,1
12/1/2003 10:45,20.3,1,70.7,1,18.2,1,19.6,1,15.4,1
12/1/2003 11:00,20.2,1,68.7,1,18.2,1,19.6,1,15.5,1
12/1/2003 11:15,20.5,1,69.9,1,18.2,1,19.5,1,15.5,1
12/1/2003 11:30,20.6,1,69,1,18.3,1,19.6,1,15.6,1
12/1/2003 11:45,20.6,1,70.3,1,18.4,1,19.7,1,15.6,1
12/1/2003 12:00,20.6,1,70.2,1,18.4,1,19.7,1,15.9,1
12/1/2003 12:15,20.5,1,70.7,1,18.4,1,19.7,1,15.9,1
12/1/2003 12:30,20.5,1,70.8,1,18.3,1,19.7,1,15.9,1
12/1/2003 12:45,20.4,1,71.8,1,18.3,1,19.6,1,16,1
12/1/2003 13:00,20.4,1,71.9,1,18.3,1,19.6,1,16,1
12/1/2003 13:15,20.4,1,72.8,1,18.3,1,19.6,1,16,1
12/1/2003 13:30,20.5,1,72.8,1,18.3,1,19.6,1,16.1,1
12/1/2003 13:45,20.5,1,73.2,1,18.3,1,19.7,1,16.1,1
12/1/2003 14:00,20.5,1,73.6,1,18.3,1,19.6,1,16.2,1
12/1/2003 14:15,20.4,1,73.5,1,18.3,1,19.6,1,16.2,1
12/1/2003 14:30,20.4,1,73.4,1,18.2,1,19.6,1,16.2,1
12/1/2003 14:45,20.5,1,73.4,1,18.3,1,19.6,1,16.3,1
12/1/2003 15:00,20.5,1,73.6,1,18.3,1,19.6,1,16.3,1
12/1/2003 15:15,20.5,1,73.4,1,18.3,1,19.6,1,16.3,1
12/1/2003 15:30,20.4,1,73.5,1,18.2,1,19.6,1,16.4,1
12/1/2003 15:45,20.4,1,73.3,1,18.2,1,19.6,1,16.4,1
12/1/2003 16:00,20.4,1,73.2,1,18.2,1,19.6,1,16.5,1
12/1/2003 16:15,20.3,1,73,1,18.2,1,19.5,1,16.5,1
12/1/2003 16:30,20.3,1,72.8,1,18.2,1,19.5,1,15.8,1
12/1/2003 16:45,20.3,1,72.7,1,18.1,1,19.5,1,15.7,1
12/1/2003 17:00,20.3,1,72.6,1,18.1,1,19.5,1,15.7,1
12/1/2003 17:15,20.3,1,73,1,18.1,1,19.5,1,15.7,1
12/1/2003 17:30,20.3,1,72.4,1,18.1,1,19.5,1,15.7,1
12/1/2003 17:45,20.4,1,73.6,1,18.1,1,19.5,1,15.7,1
12/1/2003 18:00,20.4,1,73.5,1,18.2,1,19.6,1,15.8,1
12/1/2003 18:15,20.3,1,73.5,1,18.2,1,19.6,1,15.8,1
12/1/2003 18:30,20.3,1,73,1,18.2,1,19.5,1,15.9,1
12/1/2003 18:45,20.3,1,72.7,1,18.1,1,19.5,1,15.9,1
12/1/2003 19:00,20.3,1,72.4,1,18.1,1,19.5,1,15.9,1
12/1/2003 19:15,20.2,1,72.2,1,18.1,1,19.5,1,16,1
12/1/2003 19:30,20.2,1,71.8,1,18.1,1,19.5,1,15.5,1
12/1/2003 19:45,20.3,1,71.7,1,18.1,1,19.6,1,15.5,1
12/1/2003 20:00,20.3,1,72.3,1,18.1,1,19.6,1,15.5,1
12/1/2003 20:15,20.3,1,72,1,18.1,1,19.6,1,15.6,1
12/1/2003 20:30,20.2,1,72,1,18.1,1,19.6,1,15.6,1
12/1/2003 20:45,20.6,1,72.5,1,18.2,1,19.6,1,15.6,1
12/1/2003 21:00,20.7,1,71.7,1,18.4,1,19.8,1,15.7,1
12/1/2003 21:15,20.8,1,74,1,18.4,1,19.9,1,15.7,1
12/1/2003 21:30,20.7,1,72,1,18.5,1,19.9,1,15.8,1
12/1/2003 21:45,20.7,1,72.1,1,18.5,1,19.9,1,15.8,1
12/1/2003 22:00,20.7,1,71.9,1,18.5,1,19.9,1,15.9,1
12/1/2003 22:15,20.6,1,71.8,1,18.4,1,19.8,1,15.9,1
12/1/2003 22:30,20.6,1,71.5,1,18.4,1,19.8,1,15.9,1
12/1/2003 22:45,20.6,1,71.2,1,18.4,1,19.8,1,16,1
12/1/2003 23:00,20.5,1,71.1,1,18.3,1,19.8,1,16,1
12/1/2003 23:15,20.5,1,70.9,1,18.3,1,19.7,1,16.1,1
12/1/2003 23:30,20.5,1,71.1,1,18.3,1,19.7,1,14.8,1
12/1/2003 23:45,20.6,1,71.8,1,18.4,1,19.7,1,14.9,1
12/2/2003 0:00,20.8,1,73.2,1,18.5,1,19.9,1,14.9,1
12/2/2003 0:15,20.7,1,72.3,1,18.6,1,20,1,15,1
12/2/2003 0:30,20.8,1,72.5,1,18.7,1,20.1,1,15,1
12/2/2003 0:45,20.8,1,72.4,1,18.7,1,20.1,1,15.1,1
12/2/2003 1:00,20.8,1,72.2,1,18.6,1,20.1,1,15.1,1
12/2/2003 1:15,20.8,1,72.9,1,18.7,1,20.1,1,15.2,1
12/2/2003 1:30,20.8,1,72.6,1,18.7,1,20.2,1,15.2,1
12/2/2003 1:45,20.8,1,72.7,1,18.7,1,20.1,1,15.2,1
12/2/2003 2:00,20.8,1,72.2,1,18.7,1,20.1,1,15.2,1
12/2/2003 2:15,20.7,1,71.8,1,18.7,1,20.1,1,15.3,1
12/2/2003 2:30,20.7,1,71.4,1,18.6,1,20,1,15.3,1
12/2/2003 2:45,20.6,1,71.1,1,18.6,1,19.9,1,15.4,1
12/2/2003 3:00,20.6,1,70.8,1,18.6,1,19.9,1,15.4,1
12/2/2003 3:15,20.5,1,70.7,1,18.5,1,19.9,1,15.5,1
12/2/2003 3:30,20.5,1,70.6,1,18.5,1,19.8,1,15.5,1
12/2/2003 3:45,20.6,1,71.7,1,18.5,1,19.8,1,15.6,1
12/2/2003 4:00,20.6,1,71.3,1,18.5,1,19.8,1,15.6,1
12/2/2003 4:15,20.5,1,70.9,1,18.5,1,19.8,1,15.6,1
12/2/2003 4:30,20.5,1,70.2,1,18.4,1,19.7,1,15.7,1
12/2/2003 4:45,20.4,1,69.9,1,18.4,1,19.7,1,15.7,1
12/2/2003 5:00,20.3,1,69.9,1,18.4,1,19.7,1,15.8,1
12/2/2003 5:15,20.3,1,69.7,1,18.4,1,19.7,1,15.8,1
12/2/2003 5:30,20.3,1,69.6,1,18.4,1,19.7,1,15.9,1
12/2/2003 5:45,20.4,1,69.4,1,18.4,1,19.6,1,15.9,1
12/2/2003 6:00,20.3,1,69,1,18.4,1,19.6,1,15.9,1
12/2/2003 6:15,20.3,1,68.5,1,18.3,1,19.6,1,15.4,1
12/2/2003 6:30,20.4,1,65.1,1,18.3,1,19.7,1,15.5,1
12/2/2003 6:45,20.3,1,66.4,1,18.3,1,19.6,1,14.5,1
12/2/2003 7:00,20.4,1,66.2,1,18.3,1,19.5,1,14.5,1
12/2/2003 7:15,20.5,1,66.5,1,18.2,1,19.5,1,14.4,1
12/2/2003 7:30,20.2,1,57.8,1,18.2,1,19.5,1,14.4,1
12/2/2003 7:45,20.3,1,64,1,18.2,1,19.4,1,14.4,1
12/2/2003 8:00,20.4,1,65.1,1,18.2,1,19.4,1,14.5,1
12/2/2003 8:15,20.5,1,65.7,1,18.2,1,19.4,1,14.5,1
12/2/2003 8:30,20.6,1,65.8,1,18.2,1,19.4,1,14.6,1
12/2/2003 8:45,20.7,1,65.9,1,18.2,1,19.5,1,14.6,1
12/2/2003 9:00,20.6,1,59.4,1,18.2,1,19.5,1,14.6,1
12/2/2003 9:15,20.6,1,59.5,1,18.2,1,19.4,1,14.7,1
12/2/2003 9:30,20.7,1,61.9,1,18.2,1,19.4,1,14.7,1
12/2/2003 9:45,20.9,1,62.5,1,18.2,1,19.5,1,14.8,1
12/2/2003 10:00,21,1,62.9,1,18.2,1,19.5,1,14.8,1
12/2/2003 10:15,21.1,1,63,1,18.3,1,19.6,1,14.8,1
12/2/2003 10:30,21.2,1,62.9,1,18.3,1,19.6,1,14.9,1
12/2/2003 10:45,21.3,1,62.9,1,18.4,1,19.6,1,14.9,1
12/2/2003 11:00,21.4,1,62.8,1,18.4,1,19.7,1,15,1
12/2/2003 11:15,21.4,1,62.7,1,18.5,1,19.7,1,15,1
12/2/2003 11:30,21.5,1,62.6,1,18.5,1,19.8,1,15.1,1
12/2/2003 11:45,21.6,1,62.5,1,18.6,1,19.8,1,15.1,1
12/2/2003 12:00,21.7,1,62.3,1,18.6,1,19.8,1,15.2,1
12/2/2003 12:15,21.7,1,62.2,1,18.7,1,19.9,1,15.2,1
12/2/2003 12:30,21.8,1,62,1,18.7,1,19.9,1,15.3,1
12/2/2003 12:45,21.8,1,61.8,1,18.8,1,19.9,1,15.3,1
12/2/2003 13:00,21.8,1,61.7,1,18.8,1,20,1,15.4,1
12/2/2003 13:15,21.8,1,61.5,1,18.8,1,20,1,15.4,1
12/2/2003 13:30,21.8,1,61.5,1,18.9,1,20,1,15.5,1
12/2/2003 13:45,21.8,1,61.5,1,18.9,1,20.1,1,15.5,1
12/2/2003 14:00,21.8,1,61.4,1,18.9,1,20.1,1,15.6,1
12/2/2003 14:15,21.8,1,61.5,1,18.9,1,20.1,1,15.6,1
12/2/2003 14:30,21.8,1,61.5,1,18.9,1,20.1,1,15.7,1
12/2/2003 14:45,21.7,1,61.3,1,18.9,1,20.1,1,15.7,1
12/2/2003 15:00,21.7,1,61.1,1,18.9,1,20.1,1,15.8,1
12/2/2003 15:15,21.6,1,61.3,1,18.8,1,20,1,15.8,1
12/2/2003 15:30,21.4,1,61.7,1,18.8,1,20,1,15.9,1
12/2/2003 15:45,21.3,1,61.6,1,18.8,1,20,1,15.9,1
12/2/2003 16:00,21.2,1,61.9,1,18.8,1,20,1,16,1
12/2/2003 16:15,21.2,1,62,1,18.7,1,19.9,1,16,1
12/2/2003 16:30,21.1,1,61.7,1,18.7,1,19.9,1,16.1,1
12/2/2003 16:45,21.1,1,61.4,1,18.7,1,19.9,1,16.1,1
12/2/2003 17:00,21,1,59.7,1,18.6,1,19.8,1,16,1
12/2/2003 17:15,21,1,60.4,1,18.6,1,19.8,1,16,1
12/2/2003 17:30,21,1,60.5,1,18.6,1,19.8,1,16.1,1
12/2/2003 17:45,21,1,60.5,1,18.6,1,19.8,1,16.1,1
12/2/2003 18:00,21,1,60.4,1,18.5,1,19.7,1,16.1,1
12/2/2003 18:15,21,1,60.3,1,18.5,1,19.7,1,16.2,1
12/2/2003 18:30,20.9,1,60,1,18.5,1,19.7,1,16.2,1
12/2/2003 18:45,20.8,1,52.1,1,18.5,1,19.7,1,16.3,1
12/2/2003 19:00,20.7,1,51.4,1,18.5,1,19.7,1,16.3,1
12/2/2003 19:15,20.8,1,55.5,1,18.5,1,19.6,1,16.3,1
12/2/2003 19:30,20.9,1,56.8,1,18.5,1,19.6,1,16.4,1
12/2/2003 19:45,20.9,1,57.9,1,18.5,1,19.7,1,16.4,1
12/2/2003 20:00,20.9,1,58.6,1,18.5,1,19.7,1,16.4,1
12/2/2003 20:15,20.9,1,59,1,18.5,1,19.7,1,16.5,1
12/2/2003 20:30,20.9,1,59.1,1,18.5,1,19.7,1,16.5,1
12/2/2003 20:45,20.9,1,59.4,1,18.5,1,19.7,1,16.5,1
12/2/2003 21:00,20.9,1,60.4,1,18.5,1,19.7,1,16.6,1
12/2/2003 21:15,21.1,1,58.4,1,18.6,1,19.7,1,16.3,1
12/2/2003 21:30,20.9,1,53.6,1,18.5,1,19.8,1,16.3,1
12/2/2003 21:45,20.8,1,53,1,18.5,1,19.7,1,16.3,1
12/2/2003 22:00,21,1,57.1,1,18.5,1,19.7,1,16.4,1
12/2/2003 22:15,21,1,58.3,1,18.7,1,19.8,1,16.4,1
12/2/2003 22:30,21,1,58.8,1,18.8,1,19.8,1,16.4,1
12/2/2003 22:45,21,1,58.9,1,18.9,1,19.9,1,16.5,1
12/2/2003 23:00,21,1,58.8,1,19,1,19.9,1,16.5,1
12/2/2003 23:15,21,1,58.7,1,19.1,1,20,1,16.5,1
12/2/2003 23:30,21,1,59.4,1,19,1,20.1,1,16.6,1
12/2/2003 23:45,21,1,60.2,1,19,1,20.1,1,16.6,1
12/3/2003 0:00,21,1,60.8,1,18.9,1,20.1,1,16.7,1
12/3/2003 0:15,21,1,60.2,1,18.9,1,20,1,16.7,1
12/3/2003 0:30,21,1,60,1,18.8,1,20,1,16.7,1
12/3/2003 0:45,21,1,61.2,1,18.8,1,20,1,16.8,1
12/3/2003 1:00,21,1,62.1,1,18.8,1,20,1,16.8,1
12/3/2003 1:15,21,1,61.8,1,18.8,1,20,1,16.8,1
12/3/2003 1:30,21,1,61.4,1,18.7,1,20,1,16.9,1
12/3/2003 1:45,20.9,1,61.2,1,18.7,1,20,1,16.9,1
12/3/2003 2:00,20.9,1,61,1,18.7,1,19.9,1,16.9,1
12/3/2003 2:15,20.9,1,60.9,1,18.7,1,19.9,1,17,1
12/3/2003 2:30,20.9,1,60.8,1,18.6,1,19.9,1,17,1
12/3/2003 2:45,20.9,1,60.7,1,18.6,1,19.9,1,17.1,1
12/3/2003 3:00,20.8,1,60.4,1,18.6,1,19.8,1,17.1,1
12/3/2003 3:15,20.7,1,60.3,1,18.5,1,19.8,1,17.1,1
12/3/2003 3:30,20.8,1,60,1,18.5,1,19.8,1,17.1,1
12/3/2003 3:45,20.8,1,59.8,1,18.5,1,19.8,1,17.2,1
12/3/2003 4:00,20.7,1,59.9,1,18.5,1,19.8,1,17.2,1
12/3/2003 4:15,20.7,1,59.8,1,18.5,1,19.7,1,17.2,1
12/3/2003 4:30,20.7,1,59.8,1,18.4,1,19.7,1,17.3,1
12/3/2003 4:45,20.6,1,59.5,1,18.4,1,19.7,1,17.3,1
12/3/2003 5:00,20.6,1,59.5,1,18.4,1,19.7,1,17.3,1
12/3/2003 5:15,20.6,1,59.3,1,18.4,1,19.7,1,17.4,1
12/3/2003 5:30,20.5,1,59.4,1,18.4,1,19.7,1,17.4,1
12/3/2003 5:45,20.5,1,59.2,1,18.3,1,19.6,1,17.4,1
12/3/2003 6:00,20.6,1,59.2,1,18.3,1,19.6,1,17.5,1
12/3/2003 6:15,20.7,1,59.4,1,18.3,1,19.6,1,17.5,1
12/3/2003 6:30,20.6,1,59.4,1,18.3,1,19.6,1,15.7,1
12/3/2003 6:45,20.6,1,59.5,1,18.4,1,19.6,1,15.7,1
12/3/2003 7:00,20.6,1,59.4,1,18.4,1,19.6,1,15.8,1
12/3/2003 7:15,20.5,1,60.4,1,18.4,1,19.6,1,15.8,1
12/3/2003 7:30,20.8,1,61.1,1,18.4,1,19.7,1,15.9,1
12/3/2003 7:45,20.7,1,52,1,18.3,1,19.7,1,14.7,1
12/3/2003 8:00,20.6,1,52.8,1,18.3,1,19.7,1,14.7,1
12/3/2003 8:15,20.5,1,50.2,1,18.2,1,19.6,1,14.7,1
12/3/2003 8:30,20.3,1,47.7,1,18.2,1,19.6,1,14.8,1
12/3/2003 8:45,20.4,1,54,1,18.1,1,19.5,1,14.8,1
12/3/2003 9:00,20.4,1,55.1,1,18.1,1,19.5,1,14.9,1
12/3/2003 9:15,20.4,1,56.1,1,18.1,1,19.5,1,14.9,1
12/3/2003 9:30,20.4,1,56.5,1,18.1,1,19.5,1,14.9,1
12/3/2003 9:45,20.3,1,57.2,1,18.1,1,19.5,1,15,1
12/3/2003 10:00,20.3,1,57.4,1,18,1,19.5,1,15,1
12/3/2003 10:15,20.4,1,57.5,1,18,1,19.5,1,15.1,1
12/3/2003 10:30,20.4,1,57.8,1,18,1,19.5,1,15.1,1
12/3/2003 10:45,20.4,1,57.8,1,18,1,19.5,1,15.2,1
12/3/2003 11:00,20.3,1,58.5,1,18,1,19.5,1,14.9,1
12/3/2003 11:15,20.4,1,58.6,1,18,1,19.5,1,15,1
12/3/2003 11:30,20.5,1,58.4,1,18.1,1,19.5,1,15,1
12/3/2003 11:45,20.4,1,58.6,1,18.1,1,19.5,1,15.1,1
12/3/2003 12:00,20.5,1,58.2,1,18.1,1,19.5,1,15.1,1
12/3/2003 12:15,20.6,1,58.3,1,18.1,1,19.5,1,15.2,1
12/3/2003 12:30,20.5,1,58.4,1,18.1,1,19.5,1,15.2,1
12/3/2003 12:45,20.5,1,58.8,1,18.1,1,19.5,1,15.2,1
12/3/2003 13:00,20.6,1,59.3,1,18.2,1,19.6,1,15.3,1
12/3/2003 13:15,20.7,1,60,1,18.2,1,19.6,1,15.3,1
12/3/2003 13:30,20.7,1,59.8,1,18.2,1,19.6,1,15.8,1
12/3/2003 13:45,20.6,1,59.4,1,18.2,1,19.6,1,15.8,1
12/3/2003 14:00,20.6,1,59.2,1,18.2,1,19.6,1,15.9,1
12/3/2003 14:15,20.6,1,58.8,1,18.2,1,19.6,1,15.9,1
12/3/2003 14:30,20.5,1,58.6,1,18.2,1,19.6,1,15.9,1
12/3/2003 14:45,20.6,1,58.4,1,18.2,1,19.6,1,16,1
12/3/2003 15:00,20.5,1,58.1,1,18.2,1,19.6,1,16,1
12/3/2003 15:15,20.5,1,57.9,1,18.1,1,19.5,1,16,1
12/3/2003 15:30,20.4,1,57.7,1,18.1,1,19.5,1,16.1,1
12/3/2003 15:45,20.4,1,57.6,1,18.1,1,19.5,1,16.1,1
12/3/2003 16:00,20.2,1,51.4,1,18.1,1,19.5,1,15.4,1
12/3/2003 16:15,20.2,1,52.1,1,18,1,19.4,1,15.5,1
12/3/2003 16:30,20.1,1,52.1,1,18,1,19.4,1,15.5,1
12/3/2003 16:45,20.1,1,52.3,1,18,1,19.4,1,15.5,1
12/3/2003 17:00,20.1,1,52.6,1,17.9,1,19.4,1,16.9,1
12/3/2003 17:15,20.1,1,53.8,1,17.9,1,19.3,1,15.4,1
12/3/2003 17:30,20.5,1,56.4,1,18,1,19.4,1,15.4,1
12/3/2003 17:45,20.5,1,57.3,1,18.1,1,19.5,1,15.3,1
12/3/2003 18:00,20.5,1,57.8,1,18.2,1,19.5,1,15.4,1
12/3/2003 18:15,20.5,1,58.3,1,18.2,1,19.5,1,15.4,1
12/3/2003 18:30,20.4,1,58.3,1,18.2,1,19.5,1,15.4,1
12/3/2003 18:45,20.4,1,58.3,1,18.2,1,19.5,1,15.5,1
12/3/2003 19:00,20.4,1,58.6,1,18.2,1,19.5,1,15.5,1
12/3/2003 19:15,20.4,1,58.6,1,18.2,1,19.5,1,15.6,1
12/3/2003 19:30,20.4,1,58.7,1,18.2,1,19.5,1,15.6,1
12/3/2003 19:45,20.4,1,59,1,18.2,1,19.5,1,15.6,1
12/3/2003 20:00,20.5,1,59.6,1,18.2,1,19.5,1,15.7,1
12/3/2003 20:15,20.5,1,59.7,1,18.2,1,19.5,1,15.7,1
12/3/2003 20:30,20.6,1,59.8,1,18.2,1,19.6,1,15.8,1
12/3/2003 20:45,20.5,1,56.6,1,18.2,1,19.6,1,15.8,1
12/3/2003 21:00,20.5,1,56.8,1,18.2,1,19.6,1,15.3,1
12/3/2003 21:15,20.7,1,59.2,1,18.3,1,19.7,1,15.2,1
12/3/2003 21:30,20.7,1,59.5,1,18.3,1,19.7,1,15.3,1
12/3/2003 21:45,20.7,1,60.1,1,18.4,1,19.7,1,15.3,1
12/3/2003 22:00,20.8,1,61.8,1,18.4,1,19.8,1,15.4,1
12/3/2003 22:15,20.8,1,62.6,1,18.5,1,20,1,15.4,1
12/3/2003 22:30,20.9,1,64,1,18.5,1,20,1,15.5,1
12/3/2003 22:45,20.9,1,64.1,1,18.5,1,20,1,15.5,1
12/3/2003 23:00,20.9,1,63.8,1,18.6,1,20,1,15.5,1
12/3/2003 23:15,20.8,1,62.5,1,18.6,1,20,1,15.6,1
12/3/2003 23:30,20.8,1,62.3,1,18.7,1,20,1,15.6,1
12/3/2003 23:45,20.8,1,62.2,1,18.7,1,19.9,1,15,1
12/4/2003 0:00,20.8,1,62.2,1,18.7,1,19.9,1,14.6,1
12/4/2003 0:15,21,1,65.9,1,18.8,1,20,1,14.6,1
12/4/2003 0:30,20.8,1,63.9,1,18.7,1,20,1,14.6,1
12/4/2003 0:45,20.8,1,63.6,1,18.7,1,20,1,14.7,1
12/4/2003 1:00,20.7,1,63.4,1,18.7,1,20,1,14.7,1
12/4/2003 1:15,20.7,1,63.1,1,18.6,1,19.9,1,14.8,1
12/4/2003 1:30,20.6,1,62.8,1,18.6,1,19.9,1,14.8,1
12/4/2003 1:45,20.6,1,62.8,1,18.5,1,19.9,1,14.8,1
12/4/2003 2:00,20.6,1,62.6,1,18.5,1,19.8,1,14.9,1
12/4/2003 2:15,20.5,1,62.3,1,18.5,1,19.8,1,14.9,1
12/4/2003 2:30,20.5,1,62.3,1,18.5,1,19.8,1,15,1
12/4/2003 2:45,20.5,1,61.9,1,18.5,1,19.8,1,15,1
12/4/2003 3:00,20.5,1,61.7,1,18.5,1,19.7,1,15.1,1
12/4/2003 3:15,20.5,1,61.6,1,18.4,1,19.7,1,15.1,1
12/4/2003 3:30,20.5,1,61.4,1,18.4,1,19.7,1,15.2,1
12/4/2003 3:45,20.5,1,61.2,1,18.4,1,19.7,1,15.2,1
12/4/2003 4:00,20.4,1,61.2,1,18.3,1,19.6,1,15.3,1
12/4/2003 4:15,20.4,1,60.9,1,18.3,1,19.6,1,15.3,1
12/4/2003 4:30,20.4,1,60.8,1,18.2,1,19.6,1,15.4,1
12/4/2003 4:45,20.3,1,60.9,1,18.2,1,19.6,1,15.4,1
12/4/2003 5:00,20.3,1,60.8,1,18.2,1,19.6,1,15.4,1
12/4/2003 5:15,20.3,1,60.5,1,18.2,1,19.6,1,15.5,1
12/4/2003 5:30,20.3,1,60.2,1,18.1,1,19.5,1,15.5,1
12/4/2003 5:45,20.2,1,60.1,1,18.1,1,19.5,1,15.6,1
12/4/2003 6:00,20.2,1,60.1,1,18.1,1,19.5,1,15.6,1
12/4/2003 6:15,20.2,1,60.3,1,18.1,1,19.5,1,15.7,1
12/4/2003 6:30,20.3,1,60.5,1,18.1,1,19.5,1,14.8,1
12/4/2003 6:45,20.3,1,59.7,1,18.1,1,19.5,1,14.8,1
12/4/2003 7:00,20.2,1,59.3,1,18.1,1,19.5,1,14.9,1
12/4/2003 7:15,20.3,1,59.5,1,18.1,1,19.5,1,14.9,1
12/4/2003 7:30,20.4,1,59.1,1,18,1,19.5,1,14.6,1
12/4/2003 7:45,20.6,1,59.3,1,18.1,1,19.5,1,14.7,1
12/4/2003 8:00,20.6,1,58.8,1,18.1,1,19.6,1,14.7,1
12/4/2003 8:15,20.3,1,50.5,1,18,1,19.6,1,14.4,1
12/4/2003 8:30,19.9,1,46.7,1,17.8,1,19.5,1,14.4,1
12/4/2003 8:45,20.1,1,50.6,1,17.7,1,19.4,1,14.4,1
12/4/2003 9:00,20.3,1,51.6,1,17.7,1,19.4,1,14.5,1
12/4/2003 9:15,20.4,1,52.4,1,17.7,1,19.5,1,14.5,1
12/4/2003 9:30,20.5,1,53,1,17.7,1,19.5,1,14.5,1
12/4/2003 9:45,20.5,1,53.4,1,17.8,1,19.6,1,14.6,1
12/4/2003 10:00,20.7,1,53.6,1,17.8,1,19.7,1,14.6,1
12/4/2003 10:15,20.8,1,54.2,1,17.9,1,19.7,1,14.7,1
12/4/2003 10:30,20.9,1,54,1,17.9,1,19.8,1,14.1,1
12/4/2003 10:45,21,1,54.7,1,18,1,19.8,1,14.2,1
12/4/2003 11:00,21.1,1,54.5,1,18.1,1,19.8,1,14.2,1
12/4/2003 11:15,21.2,1,54.4,1,18.1,1,19.7,1,14.3,1
12/4/2003 11:30,21.2,1,54.6,1,18.2,1,19.7,1,14.3,1
12/4/2003 11:45,21.3,1,54.3,1,18.2,1,19.7,1,14.3,1
12/4/2003 12:00,21.5,1,53.2,1,18.3,1,19.7,1,14.3,1
12/4/2003 12:15,21.5,1,53.6,1,18.4,1,19.8,1,14.3,1
12/4/2003 12:30,21.6,1,53.6,1,18.4,1,19.9,1,14.4,1
12/4/2003 12:45,21.6,1,53.7,1,18.5,1,19.9,1,14.4,1
12/4/2003 13:00,21.7,1,53.6,1,18.5,1,19.9,1,14.5,1
12/4/2003 13:15,21.6,1,53.7,1,18.5,1,19.9,1,14.5,1
12/4/2003 13:30,21.7,1,53.6,1,18.6,1,19.9,1,14.5,1
12/4/2003 13:45,21.7,1,53.7,1,18.6,1,19.9,1,14.6,1
12/4/2003 14:00,21.6,1,53.6,1,18.6,1,19.9,1,14.6,1
12/4/2003 14:15,21.6,1,53.6,1,18.6,1,19.9,1,14.7,1
12/4/2003 14:30,21.6,1,53.7,1,18.6,1,19.9,1,14.7,1
12/4/2003 14:45,21.5,1,53.5,1,18.6,1,19.9,1,14.7,1
12/4/2003 15:00,21.5,1,53.6,1,18.6,1,19.9,1,14.8,1
12/4/2003 15:15,21.3,1,54.2,1,18.6,1,19.9,1,14.8,1
12/4/2003 15:30,21.2,1,54.6,1,18.6,1,19.9,1,14.9,1
12/4/2003 15:45,21.1,1,50.9,1,18.2,1,19.8,1,14.9,1
12/4/2003 16:00,20.6,1,37.7,1,18.2,1,19.7,1,15,1
12/4/2003 16:15,20.7,1,46.2,1,18.1,1,19.6,1,15.8,1
12/4/2003 16:30,20.7,1,48.5,1,18.1,1,19.6,1,15.9,1
12/4/2003 16:45,20.7,1,49.5,1,18.1,1,19.5,1,15.9,1
12/4/2003 17:00,20.7,1,50.2,1,18.1,1,19.5,1,15.9,1
12/4/2003 17:15,20.7,1,51,1,18.1,1,19.5,1,16,1
12/4/2003 17:30,20.8,1,51.7,1,18.2,1,19.5,1,14.8,1
12/4/2003 17:45,20.8,1,53.1,1,18.2,1,19.6,1,14.8,1
12/4/2003 18:00,20.8,1,53.8,1,18.2,1,19.6,1,15.3,1
12/4/2003 18:15,20.8,1,54.4,1,18.2,1,19.6,1,14.3,1
12/4/2003 18:30,20.7,1,54.9,1,18.3,1,19.7,1,14.4,1
12/4/2003 18:45,20.7,1,55.1,1,18.4,1,19.7,1,14.4,1
12/4/2003 19:00,20.7,1,55.4,1,18.5,1,19.8,1,14.5,1
12/4/2003 19:15,20.7,1,55.4,1,18.5,1,19.8,1,14.5,1
12/4/2003 19:30,20.8,1,55.2,1,18.4,1,19.8,1,14.5,1
12/4/2003 19:45,20.6,1,49.6,1,18.4,1,19.9,1,14.6,1
12/4/2003 20:00,20.5,1,46.6,1,18.4,1,19.9,1,14.6,1
12/4/2003 20:15,20.6,1,51.3,1,18.4,1,19.8,1,14.6,1
12/4/2003 20:30,20.7,1,52.5,1,18.4,1,19.8,1,14.7,1
12/4/2003 20:45,20.8,1,55.7,1,18.5,1,19.9,1,14.7,1
12/4/2003 21:00,20.9,1,57,1,18.6,1,19.9,1,14.8,1
12/4/2003 21:15,20.9,1,56.8,1,18.5,1,19.9,1,14.7,1
12/4/2003 21:30,20.9,1,56.9,1,18.5,1,19.9,1,14.5,1
12/4/2003 21:45,20.9,1,56.9,1,18.5,1,19.9,1,14.5,1
12/4/2003 22:00,20.8,1,56.6,1,18.6,1,20,1,14.6,1
12/4/2003 22:15,20.9,1,56.4,1,18.6,1,20.1,1,14.6,1
12/4/2003 22:30,20.8,1,56.9,1,18.8,1,20.2,1,14.6,1
12/4/2003 22:45,20.8,1,56.5,1,18.9,1,20.3,1,14.7,1
12/4/2003 23:00,20.8,1,56.7,1,18.9,1,20.3,1,14.7,1
12/4/2003 23:15,20.9,1,57.2,1,18.9,1,20.4,1,14.5,1
12/4/2003 23:30,20.8,1,57.5,1,18.9,1,20.5,1,14.6,1
12/4/2003 23:45,20.8,1,57.1,1,18.9,1,20.5,1,14.6,1
12/5/2003 0:00,20.9,1,57.1,1,18.8,1,20.5,1,14.6,1
12/5/2003 0:15,20.8,1,59.4,1,18.8,1,20.5,1,14.7,1
12/5/2003 0:30,20.9,1,59.2,1,18.8,1,20.5,1,14.7,1
12/5/2003 0:45,20.8,1,58.3,1,18.7,1,20.4,1,14.8,1
12/5/2003 1:00,20.8,1,57.9,1,18.7,1,20.3,1,14.8,1
12/5/2003 1:15,20.7,1,57.6,1,18.7,1,20.2,1,14.9,1
12/5/2003 1:30,20.7,1,57.4,1,18.6,1,20.1,1,14.9,1
12/5/2003 1:45,20.7,1,57.2,1,18.5,1,20.1,1,14.9,1
12/5/2003 2:00,20.6,1,56.9,1,18.5,1,20,1,15,1
12/5/2003 2:15,20.6,1,57.1,1,18.5,1,19.9,1,15,1
12/5/2003 2:30,20.6,1,57.2,1,18.5,1,19.9,1,15.1,1
12/5/2003 2:45,20.6,1,57.1,1,18.4,1,19.9,1,15.1,1
12/5/2003 3:00,20.5,1,57,1,18.3,1,19.8,1,15.2,1
12/5/2003 3:15,20.5,1,56.7,1,18.3,1,19.8,1,15.2,1
12/5/2003 3:30,20.5,1,56.6,1,18.3,1,19.8,1,15.2,1
12/5/2003 3:45,20.5,1,56.5,1,18.2,1,19.7,1,15.3,1
12/5/2003 4:00,20.5,1,56.9,1,18.2,1,19.7,1,15.3,1
12/5/2003 4:15,20.5,1,56.8,1,18.2,1,19.7,1,15.4,1
12/5/2003 4:30,20.4,1,56.7,1,18.2,1,19.7,1,15.4,1
12/5/2003 4:45,20.4,1,56.8,1,18.2,1,19.7,1,15.5,1
12/5/2003 5:00,20.4,1,56.4,1,18.1,1,19.6,1,15.5,1
12/5/2003 5:15,20.4,1,56.3,1,18.2,1,19.6,1,15.6,1
12/5/2003 5:30,20.4,1,56.5,1,18.2,1,19.6,1,15.6,1
12/5/2003 5:45,20.3,1,56.4,1,18.1,1,19.6,1,15.6,1
12/5/2003 6:00,20.3,1,56.1,1,18.1,1,19.6,1,15.7,1
12/5/2003 6:15,20.3,1,56.3,1,18.1,1,19.6,1,15.7,1
12/5/2003 6:30,20.6,1,58.3,1,18.1,1,19.6,1,14.6,1
12/5/2003 6:45,20.8,1,59.6,1,18.3,1,19.7,1,14.7,1
12/5/2003 7:00,20.8,1,59.1,1,18.3,1,19.8,1,13.8,1
12/5/2003 7:15,20.7,1,59.6,1,18.3,1,19.8,1,13.9,1
12/5/2003 7:30,20.6,1,58,1,18.3,1,19.8,1,13.9,1
12/5/2003 7:45,20.5,1,57.7,1,18.3,1,19.7,1,14,1
12/5/2003 8:00,20.5,1,57.3,1,18.2,1,19.7,1,14,1
12/5/2003 8:15,20.4,1,57,1,18.2,1,19.6,1,14,1
12/5/2003 8:30,20.4,1,56.6,1,18.1,1,19.6,1,14.1,1
12/5/2003 8:45,20.3,1,56.2,1,18.1,1,19.6,1,14.1,1
12/5/2003 9:00,20.3,1,56,1,18.1,1,19.5,1,14.2,1
12/5/2003 9:15,20.2,1,56.4,1,18,1,19.5,1,14.2,1
12/5/2003 9:30,20.2,1,56.5,1,18,1,19.5,1,14.2,1
12/5/2003 9:45,20.2,1,56.8,1,18,1,19.5,1,14.3,1
12/5/2003 10:00,20.4,1,56.9,1,17.9,1,19.5,1,14.3,1
12/5/2003 10:15,20.2,1,51.8,1,17.9,1,19.5,1,14.3,1
12/5/2003 10:30,19.9,1,44.4,1,17.8,1,19.4,1,14.4,1
12/5/2003 10:45,19.7,1,41.4,1,17.7,1,19.3,1,14.4,1
12/5/2003 11:00,19.5,1,42,1,17.6,1,19.2,1,14.4,1
12/5/2003 11:15,19.6,1,45.7,1,17.5,1,19.1,1,14.5,1
12/5/2003 11:30,19.6,1,48.8,1,17.4,1,19.1,1,14.5,1
12/5/2003 11:45,19.7,1,50.4,1,17.4,1,19.1,1,14.6,1
12/5/2003 12:00,19.7,1,51.3,1,17.4,1,19,1,14.6,1
12/5/2003 12:15,19.7,1,52,1,17.4,1,19,1,14.6,1
12/5/2003 12:30,19.6,1,52.5,1,17.4,1,19,1,14.7,1
12/5/2003 12:45,19.7,1,52.7,1,17.4,1,19,1,14.7,1
12/5/2003 13:00,19.6,1,53.3,1,17.4,1,19,1,14.7,1
12/5/2003 13:15,19.6,1,53.9,1,17.4,1,19,1,14.8,1
12/5/2003 13:30,19.6,1,54.3,1,17.3,1,19,1,14.8,1
12/5/2003 13:45,19.6,1,54.8,1,17.3,1,19,1,14.8,1
12/5/2003 14:00,19.6,1,55,1,17.3,1,19,1,14.9,1
12/5/2003 14:15,19.6,1,55.2,1,17.3,1,19,1,14.9,1
12/5/2003 14:30,19.7,1,55.1,1,17.3,1,19,1,14.7,1
12/5/2003 14:45,20,1,56.1,1,17.5,1,19.1,1,14.5,1
12/5/2003 15:00,20,1,57.6,1,17.5,1,19.2,1,14.5,1
12/5/2003 15:15,20,1,57.6,1,17.6,1,19.2,1,14.5,1
12/5/2003 15:30,20,1,57.3,1,17.6,1,19.2,1,14.6,1
12/5/2003 15:45,20,1,57,1,17.6,1,19.2,1,14.6,1
12/5/2003 16:00,19.9,1,56.8,1,17.6,1,19.2,1,14.7,1
12/5/2003 16:15,20,1,56.6,1,17.5,1,19.2,1,14.7,1
12/5/2003 16:30,20.1,1,55.3,1,17.6,1,19.2,1,14.7,1
12/5/2003 16:45,19.8,1,57.1,1,17.6,1,19.2,1,14.8,1
12/5/2003 17:00,19.9,1,58.8,1,17.6,1,19.2,1,14.8,1
12/5/2003 17:15,19.9,1,58.7,1,17.6,1,19.2,1,15.1,1
12/5/2003 17:30,19.9,1,59,1,17.6,1,19.2,1,15.1,1
12/5/2003 17:45,19.8,1,58.9,1,17.6,1,19.2,1,15.1,1
12/5/2003 18:00,19.8,1,58.7,1,17.6,1,19.2,1,15.2,1
12/5/2003 18:15,19.8,1,58.6,1,17.6,1,19.2,1,15.2,1
12/5/2003 18:30,19.7,1,58.5,1,17.5,1,19.1,1,15.2,1
12/5/2003 18:45,19.7,1,58.2,1,17.5,1,19.1,1,15.3,1
12/5/2003 19:00,19.7,1,58,1,17.5,1,19.1,1,15.3,1
12/5/2003 19:15,19.7,1,58,1,17.5,1,19.1,1,15.3,1
12/5/2003 19:30,19.7,1,58.1,1,17.5,1,19.1,1,15.4,1
12/5/2003 19:45,19.7,1,58.2,1,17.5,1,19.2,1,15.4,1
12/5/2003 20:00,19.7,1,59.4,1,17.5,1,19.3,1,15.4,1
12/5/2003 20:15,19.8,1,59.1,1,17.6,1,19.4,1,15.5,1
12/5/2003 20:30,19.7,1,58.9,1,17.6,1,19.4,1,15.5,1
12/5/2003 20:45,19.7,1,59,1,17.6,1,19.5,1,15.5,1
12/5/2003 21:00,19.7,1,58.6,1,17.6,1,19.6,1,15.6,1